Year,Month,Day,Hour,Minute,Value (Times are PST for insolation in W/m^2)
2016,01,30,00,00,0.00
2016,01,30,00,01,0.00
2016,01,30,00,02,0.00
2016,01,30,00,03,0.00
2016,01,30,00,04,0.00
2016,01,30,00,05,0.00
2016,01,30,00,06,0.00
2016,01,30,00,07,0.00
2016,01,30,00,08,0.00
2016,01,30,00,09,0.00
2016,01,30,00,10,0.00
2016,01,30,00,11,0.00
2016,01,30,00,12,0.00
2016,01,30,00,13,0.00
2016,01,30,00,14,0.00
2016,01,30,00,15,0.00
2016,01,30,00,16,0.00
2016,01,30,00,17,0.00
2016,01,30,00,18,0.00
2016,01,30,00,19,0.00
2016,01,30,00,20,0.00
2016,01,30,00,21,0.00
2016,01,30,00,22,0.00
2016,01,30,00,23,0.00
2016,01,30,00,24,0.00
2016,01,30,00,25,0.00
2016,01,30,00,26,0.00
2016,01,30,00,27,0.00
2016,01,30,00,28,0.00
2016,01,30,00,29,0.00
2016,01,30,00,30,0.00
2016,01,30,00,31,0.00
2016,01,30,00,32,0.00
2016,01,30,00,33,0.00
2016,01,30,00,34,0.00
2016,01,30,00,35,0.00
2016,01,30,00,36,0.00
2016,01,30,00,37,0.00
2016,01,30,00,38,0.00
2016,01,30,00,39,0.00
2016,01,30,00,40,0.00
2016,01,30,00,41,0.00
2016,01,30,00,42,0.00
2016,01,30,00,43,0.00
2016,01,30,00,44,0.00
2016,01,30,00,45,0.00
2016,01,30,00,46,0.00
2016,01,30,00,47,0.00
2016,01,30,00,48,0.00
2016,01,30,00,49,0.00
2016,01,30,00,50,0.00
2016,01,30,00,51,0.00
2016,01,30,00,52,0.00
2016,01,30,00,53,0.00
2016,01,30,00,54,0.00
2016,01,30,00,55,0.00
2016,01,30,00,56,0.00
2016,01,30,00,57,0.00
2016,01,30,00,58,0.00
2016,01,30,00,59,0.00
2016,01,30,01,00,0.00
2016,01,30,01,01,0.00
2016,01,30,01,02,0.00
2016,01,30,01,03,0.00
2016,01,30,01,04,0.00
2016,01,30,01,05,0.00
2016,01,30,01,06,0.00
2016,01,30,01,07,0.00
2016,01,30,01,08,0.00
2016,01,30,01,09,0.00
2016,01,30,01,10,0.00
2016,01,30,01,11,0.00
2016,01,30,01,12,0.00
2016,01,30,01,13,0.00
2016,01,30,01,14,0.00
2016,01,30,01,15,0.00
2016,01,30,01,16,0.00
2016,01,30,01,17,0.00
2016,01,30,01,18,0.00
2016,01,30,01,19,0.00
2016,01,30,01,20,0.00
2016,01,30,01,21,0.00
2016,01,30,01,22,0.00
2016,01,30,01,23,0.00
2016,01,30,01,24,0.00
2016,01,30,01,25,0.00
2016,01,30,01,26,0.00
2016,01,30,01,27,0.00
2016,01,30,01,28,0.00
2016,01,30,01,29,0.00
2016,01,30,01,30,0.00
2016,01,30,01,31,0.00
2016,01,30,01,32,0.00
2016,01,30,01,33,0.00
2016,01,30,01,34,0.00
2016,01,30,01,35,0.00
2016,01,30,01,36,0.00
2016,01,30,01,37,0.00
2016,01,30,01,38,0.00
2016,01,30,01,39,0.00
2016,01,30,01,40,0.00
2016,01,30,01,41,0.00
2016,01,30,01,42,0.00
2016,01,30,01,43,0.00
2016,01,30,01,44,0.00
2016,01,30,01,45,0.00
2016,01,30,01,46,0.00
2016,01,30,01,47,0.00
2016,01,30,01,48,0.00
2016,01,30,01,49,0.00
2016,01,30,01,50,0.00
2016,01,30,01,51,0.00
2016,01,30,01,52,0.00
2016,01,30,01,53,0.00
2016,01,30,01,54,0.00
2016,01,30,01,55,0.00
2016,01,30,01,56,0.00
2016,01,30,01,57,0.00
2016,01,30,01,58,0.00
2016,01,30,01,59,0.00
2016,01,30,02,00,0.00
2016,01,30,02,01,0.00
2016,01,30,02,02,0.00
2016,01,30,02,03,0.00
2016,01,30,02,04,0.00
2016,01,30,02,05,0.00
2016,01,30,02,06,0.00
2016,01,30,02,07,0.00
2016,01,30,02,08,0.00
2016,01,30,02,09,0.00
2016,01,30,02,10,0.00
2016,01,30,02,11,0.00
2016,01,30,02,12,0.00
2016,01,30,02,13,0.00
2016,01,30,02,14,0.00
2016,01,30,02,15,0.00
2016,01,30,02,16,0.00
2016,01,30,02,17,0.00
2016,01,30,02,18,0.00
2016,01,30,02,19,0.00
2016,01,30,02,20,0.00
2016,01,30,02,21,0.00
2016,01,30,02,22,0.00
2016,01,30,02,23,0.00
2016,01,30,02,24,0.00
2016,01,30,02,25,0.00
2016,01,30,02,26,0.00
2016,01,30,02,27,0.00
2016,01,30,02,28,0.00
2016,01,30,02,29,0.00
2016,01,30,02,30,0.00
2016,01,30,02,31,0.00
2016,01,30,02,32,0.00
2016,01,30,02,33,0.00
2016,01,30,02,34,0.00
2016,01,30,02,35,0.00
2016,01,30,02,36,0.00
2016,01,30,02,37,0.00
2016,01,30,02,38,0.00
2016,01,30,02,39,0.00
2016,01,30,02,40,0.00
2016,01,30,02,41,0.00
2016,01,30,02,42,0.00
2016,01,30,02,43,0.00
2016,01,30,02,44,0.00
2016,01,30,02,45,0.00
2016,01,30,02,46,0.00
2016,01,30,02,47,0.00
2016,01,30,02,48,0.00
2016,01,30,02,49,0.00
2016,01,30,02,50,0.00
2016,01,30,02,51,0.00
2016,01,30,02,52,0.00
2016,01,30,02,53,0.00
2016,01,30,02,54,0.00
2016,01,30,02,55,0.00
2016,01,30,02,56,0.00
2016,01,30,02,57,0.00
2016,01,30,02,58,0.00
2016,01,30,02,59,0.00
2016,01,30,03,00,0.00
2016,01,30,03,01,0.00
2016,01,30,03,02,0.00
2016,01,30,03,03,0.00
2016,01,30,03,04,0.00
2016,01,30,03,05,0.00
2016,01,30,03,06,0.00
2016,01,30,03,07,0.00
2016,01,30,03,08,0.00
2016,01,30,03,09,0.00
2016,01,30,03,10,0.00
2016,01,30,03,11,0.00
2016,01,30,03,12,0.00
2016,01,30,03,13,0.00
2016,01,30,03,14,0.00
2016,01,30,03,15,0.00
2016,01,30,03,16,0.00
2016,01,30,03,17,0.00
2016,01,30,03,18,0.00
2016,01,30,03,19,0.00
2016,01,30,03,20,0.00
2016,01,30,03,21,0.00
2016,01,30,03,22,0.00
2016,01,30,03,23,0.00
2016,01,30,03,24,0.00
2016,01,30,03,25,0.00
2016,01,30,03,26,0.00
2016,01,30,03,27,0.00
2016,01,30,03,28,0.00
2016,01,30,03,29,0.00
2016,01,30,03,30,0.00
2016,01,30,03,31,0.00
2016,01,30,03,32,0.00
2016,01,30,03,33,0.00
2016,01,30,03,34,0.00
2016,01,30,03,35,0.00
2016,01,30,03,36,0.00
2016,01,30,03,37,0.00
2016,01,30,03,38,0.00
2016,01,30,03,39,0.00
2016,01,30,03,40,0.00
2016,01,30,03,41,0.00
2016,01,30,03,42,0.00
2016,01,30,03,43,0.00
2016,01,30,03,44,0.00
2016,01,30,03,45,0.00
2016,01,30,03,46,0.00
2016,01,30,03,47,0.00
2016,01,30,03,48,0.00
2016,01,30,03,49,0.00
2016,01,30,03,50,0.00
2016,01,30,03,51,0.00
2016,01,30,03,52,0.00
2016,01,30,03,53,0.00
2016,01,30,03,54,0.00
2016,01,30,03,55,0.00
2016,01,30,03,56,0.00
2016,01,30,03,57,0.00
2016,01,30,03,58,0.00
2016,01,30,03,59,0.00
2016,01,30,04,00,0.00
2016,01,30,04,01,0.00
2016,01,30,04,02,0.00
2016,01,30,04,03,0.00
2016,01,30,04,04,0.00
2016,01,30,04,05,0.00
2016,01,30,04,06,0.00
2016,01,30,04,07,0.00
2016,01,30,04,08,0.00
2016,01,30,04,09,0.00
2016,01,30,04,10,0.00
2016,01,30,04,11,0.00
2016,01,30,04,12,0.00
2016,01,30,04,13,0.00
2016,01,30,04,14,0.00
2016,01,30,04,15,0.00
2016,01,30,04,16,0.00
2016,01,30,04,17,0.00
2016,01,30,04,18,0.00
2016,01,30,04,19,0.00
2016,01,30,04,20,0.00
2016,01,30,04,21,0.00
2016,01,30,04,22,0.00
2016,01,30,04,23,0.00
2016,01,30,04,24,0.00
2016,01,30,04,25,0.00
2016,01,30,04,26,0.00
2016,01,30,04,27,0.00
2016,01,30,04,28,0.00
2016,01,30,04,29,0.00
2016,01,30,04,30,0.00
2016,01,30,04,31,0.00
2016,01,30,04,32,0.00
2016,01,30,04,33,0.00
2016,01,30,04,34,0.00
2016,01,30,04,35,0.00
2016,01,30,04,36,0.00
2016,01,30,04,37,0.00
2016,01,30,04,38,0.00
2016,01,30,04,39,0.00
2016,01,30,04,40,0.00
2016,01,30,04,41,0.00
2016,01,30,04,42,0.00
2016,01,30,04,43,0.00
2016,01,30,04,44,0.00
2016,01,30,04,45,0.00
2016,01,30,04,46,0.00
2016,01,30,04,47,0.00
2016,01,30,04,48,0.00
2016,01,30,04,49,0.00
2016,01,30,04,50,0.00
2016,01,30,04,51,0.00
2016,01,30,04,52,0.00
2016,01,30,04,53,0.00
2016,01,30,04,54,0.00
2016,01,30,04,55,0.00
2016,01,30,04,56,0.00
2016,01,30,04,57,0.00
2016,01,30,04,58,0.00
2016,01,30,04,59,0.00
2016,01,30,05,00,0.00
2016,01,30,05,01,0.00
2016,01,30,05,02,0.00
2016,01,30,05,03,0.00
2016,01,30,05,04,0.00
2016,01,30,05,05,0.00
2016,01,30,05,06,0.00
2016,01,30,05,07,0.00
2016,01,30,05,08,0.00
2016,01,30,05,09,0.00
2016,01,30,05,10,0.00
2016,01,30,05,11,0.00
2016,01,30,05,12,0.00
2016,01,30,05,13,0.00
2016,01,30,05,14,0.00
2016,01,30,05,15,0.00
2016,01,30,05,16,0.00
2016,01,30,05,17,0.00
2016,01,30,05,18,0.00
2016,01,30,05,19,0.00
2016,01,30,05,20,0.00
2016,01,30,05,21,0.00
2016,01,30,05,22,0.00
2016,01,30,05,23,0.00
2016,01,30,05,24,0.00
2016,01,30,05,25,0.00
2016,01,30,05,26,0.00
2016,01,30,05,27,0.00
2016,01,30,05,28,0.00
2016,01,30,05,29,0.00
2016,01,30,05,30,0.00
2016,01,30,05,31,0.00
2016,01,30,05,32,0.00
2016,01,30,05,33,0.00
2016,01,30,05,34,0.00
2016,01,30,05,35,0.00
2016,01,30,05,36,0.00
2016,01,30,05,37,0.00
2016,01,30,05,38,0.00
2016,01,30,05,39,0.00
2016,01,30,05,40,0.00
2016,01,30,05,41,0.00
2016,01,30,05,42,0.00
2016,01,30,05,43,0.00
2016,01,30,05,44,0.00
2016,01,30,05,45,0.00
2016,01,30,05,46,0.00
2016,01,30,05,47,0.00
2016,01,30,05,48,0.00
2016,01,30,05,49,0.00
2016,01,30,05,50,0.00
2016,01,30,05,51,0.00
2016,01,30,05,52,0.00
2016,01,30,05,53,0.00
2016,01,30,05,54,0.00
2016,01,30,05,55,0.00
2016,01,30,05,56,0.00
2016,01,30,05,57,0.00
2016,01,30,05,58,0.00
2016,01,30,05,59,0.00
2016,01,30,06,00,0.00
2016,01,30,06,01,0.00
2016,01,30,06,02,0.00
2016,01,30,06,03,0.00
2016,01,30,06,04,0.00
2016,01,30,06,05,0.00
2016,01,30,06,06,0.00
2016,01,30,06,07,0.00
2016,01,30,06,08,0.00
2016,01,30,06,09,0.00
2016,01,30,06,10,0.00
2016,01,30,06,11,0.00
2016,01,30,06,12,0.00
2016,01,30,06,13,0.00
2016,01,30,06,14,0.00
2016,01,30,06,15,0.00
2016,01,30,06,16,0.00
2016,01,30,06,17,0.00
2016,01,30,06,18,0.00
2016,01,30,06,19,0.00
2016,01,30,06,20,0.00
2016,01,30,06,21,0.00
2016,01,30,06,22,0.00
2016,01,30,06,23,0.00
2016,01,30,06,24,0.00
2016,01,30,06,25,0.00
2016,01,30,06,26,0.00
2016,01,30,06,27,0.00
2016,01,30,06,28,0.00
2016,01,30,06,29,0.00
2016,01,30,06,30,0.00
2016,01,30,06,31,0.00
2016,01,30,06,32,0.00
2016,01,30,06,33,0.00
2016,01,30,06,34,0.00
2016,01,30,06,35,0.00
2016,01,30,06,36,0.00
2016,01,30,06,37,0.00
2016,01,30,06,38,0.00
2016,01,30,06,39,0.00
2016,01,30,06,40,0.00
2016,01,30,06,41,0.00
2016,01,30,06,42,0.00
2016,01,30,06,43,0.00
2016,01,30,06,44,0.00
2016,01,30,06,45,0.00
2016,01,30,06,46,0.00
2016,01,30,06,47,0.00
2016,01,30,06,48,0.00
2016,01,30,06,49,0.00
2016,01,30,06,50,0.00
2016,01,30,06,51,0.00
2016,01,30,06,52,0.00
2016,01,30,06,53,0.00
2016,01,30,06,54,0.00
2016,01,30,06,55,0.00
2016,01,30,06,56,0.00
2016,01,30,06,57,0.00
2016,01,30,06,58,0.00
2016,01,30,06,59,0.00
2016,01,30,07,00,0.00
2016,01,30,07,01,0.00
2016,01,30,07,02,0.00
2016,01,30,07,03,0.00
2016,01,30,07,04,0.00
2016,01,30,07,05,0.00
2016,01,30,07,06,0.00
2016,01,30,07,07,0.00
2016,01,30,07,08,0.00
2016,01,30,07,09,0.00
2016,01,30,07,10,0.00
2016,01,30,07,11,0.00
2016,01,30,07,12,0.00
2016,01,30,07,13,0.00
2016,01,30,07,14,0.00
2016,01,30,07,15,0.00
2016,01,30,07,16,0.00
2016,01,30,07,17,0.00
2016,01,30,07,18,0.00
2016,01,30,07,19,0.00
2016,01,30,07,20,0.00
2016,01,30,07,21,0.00
2016,01,30,07,22,0.00
2016,01,30,07,23,0.00
2016,01,30,07,24,0.00
2016,01,30,07,25,0.00
2016,01,30,07,26,0.00
2016,01,30,07,27,0.00
2016,01,30,07,28,0.00
2016,01,30,07,29,0.00
2016,01,30,07,30,0.00
2016,01,30,07,31,0.00
2016,01,30,07,32,0.00
2016,01,30,07,33,0.00
2016,01,30,07,34,0.00
2016,01,30,07,35,0.00
2016,01,30,07,36,0.00
2016,01,30,07,37,0.00
2016,01,30,07,38,0.00
2016,01,30,07,39,0.00
2016,01,30,07,40,0.00
2016,01,30,07,41,0.00
2016,01,30,07,42,0.00
2016,01,30,07,43,0.00
2016,01,30,07,44,0.00
2016,01,30,07,45,0.00
2016,01,30,07,46,0.00
2016,01,30,07,47,0.00
2016,01,30,07,48,0.00
2016,01,30,07,49,0.00
2016,01,30,07,50,0.00
2016,01,30,07,51,0.00
2016,01,30,07,52,0.00
2016,01,30,07,53,0.00
2016,01,30,07,54,0.00
2016,01,30,07,55,0.00
2016,01,30,07,56,0.00
2016,01,30,07,57,0.00
2016,01,30,07,58,0.00
2016,01,30,07,59,0.00
2016,01,30,08,00,0.00
2016,01,30,08,01,0.00
2016,01,30,08,02,0.00
2016,01,30,08,03,0.00
2016,01,30,08,04,0.00
2016,01,30,08,05,1.40
2016,01,30,08,06,5.00
2016,01,30,08,07,5.00
2016,01,30,08,08,5.00
2016,01,30,08,09,5.00
2016,01,30,08,10,5.00
2016,01,30,08,11,5.40
2016,01,30,08,12,7.00
2016,01,30,08,13,7.00
2016,01,30,08,14,7.00
2016,01,30,08,15,7.00
2016,01,30,08,16,7.00
2016,01,30,08,17,7.10
2016,01,30,08,18,9.00
2016,01,30,08,19,9.00
2016,01,30,08,20,9.00
2016,01,30,08,21,10.10
2016,01,30,08,22,11.00
2016,01,30,08,23,11.00
2016,01,30,08,24,11.00
2016,01,30,08,25,12.00
2016,01,30,08,26,12.00
2016,01,30,08,27,12.80
2016,01,30,08,28,14.00
2016,01,30,08,29,14.00
2016,01,30,08,30,15.50
2016,01,30,08,31,16.00
2016,01,30,08,32,16.30
2016,01,30,08,33,18.00
2016,01,30,08,34,18.40
2016,01,30,08,35,19.00
2016,01,30,08,36,19.00
2016,01,30,08,37,19.00
2016,01,30,08,38,20.80
2016,01,30,08,39,21.00
2016,01,30,08,40,21.00
2016,01,30,08,41,21.00
2016,01,30,08,42,21.00
2016,01,30,08,43,21.00
2016,01,30,08,44,21.00
2016,01,30,08,45,21.00
2016,01,30,08,46,21.00
2016,01,30,08,47,21.00
2016,01,30,08,48,21.00
2016,01,30,08,49,21.00
2016,01,30,08,50,21.00
2016,01,30,08,51,21.00
2016,01,30,08,52,21.00
2016,01,30,08,53,21.00
2016,01,30,08,54,21.00
2016,01,30,08,55,21.00
2016,01,30,08,56,21.00
2016,01,30,08,57,21.00
2016,01,30,08,58,22.50
2016,01,30,08,59,23.00
2016,01,30,09,00,23.00
2016,01,30,09,01,23.00
2016,01,30,09,02,23.00
2016,01,30,09,03,24.10
2016,01,30,09,04,25.00
2016,01,30,09,05,25.00
2016,01,30,09,06,25.00
2016,01,30,09,07,24.70
2016,01,30,09,08,23.00
2016,01,30,09,09,22.20
2016,01,30,09,10,21.00
2016,01,30,09,11,21.00
2016,01,30,09,12,21.00
2016,01,30,09,13,22.90
2016,01,30,09,14,25.10
2016,01,30,09,15,26.60
2016,01,30,09,16,28.80
2016,01,30,09,17,31.10
2016,01,30,09,18,32.60
2016,01,30,09,19,34.60
2016,01,30,09,20,36.90
2016,01,30,09,21,39.00
2016,01,30,09,22,39.30
2016,01,30,09,23,40.00
2016,01,30,09,24,40.00
2016,01,30,09,25,40.00
2016,01,30,09,26,40.00
2016,01,30,09,27,39.10
2016,01,30,09,28,39.00
2016,01,30,09,29,39.00
2016,01,30,09,30,39.00
2016,01,30,09,31,39.00
2016,01,30,09,32,39.00
2016,01,30,09,33,39.80
2016,01,30,09,34,40.00
2016,01,30,09,35,40.00
2016,01,30,09,36,39.80
2016,01,30,09,37,39.00
2016,01,30,09,38,39.00
2016,01,30,09,39,39.00
2016,01,30,09,40,39.00
2016,01,30,09,41,39.00
2016,01,30,09,42,38.70
2016,01,30,09,43,37.00
2016,01,30,09,44,37.00
2016,01,30,09,45,35.90
2016,01,30,09,46,35.00
2016,01,30,09,47,33.50
2016,01,30,09,48,33.00
2016,01,30,09,49,32.00
2016,01,30,09,50,32.00
2016,01,30,09,51,32.50
2016,01,30,09,52,33.00
2016,01,30,09,53,35.50
2016,01,30,09,54,38.50
2016,01,30,09,55,41.70
2016,01,30,09,56,44.30
2016,01,30,09,57,46.00
2016,01,30,09,58,46.00
2016,01,30,09,59,44.90
2016,01,30,10,00,42.70
2016,01,30,10,01,40.50
2016,01,30,10,02,39.00
2016,01,30,10,03,36.70
2016,01,30,10,04,35.00
2016,01,30,10,05,34.20
2016,01,30,10,06,33.00
2016,01,30,10,07,33.00
2016,01,30,10,08,33.00
2016,01,30,10,09,33.00
2016,01,30,10,10,33.00
2016,01,30,10,11,33.00
2016,01,30,10,12,33.00
2016,01,30,10,13,33.00
2016,01,30,10,14,34.30
2016,01,30,10,15,35.00
2016,01,30,10,16,35.10
2016,01,30,10,17,37.00
2016,01,30,10,18,37.00
2016,01,30,10,19,37.80
2016,01,30,10,20,39.00
2016,01,30,10,21,39.60
2016,01,30,10,22,40.00
2016,01,30,10,23,40.00
2016,01,30,10,24,40.00
2016,01,30,10,25,40.50
2016,01,30,10,26,42.00
2016,01,30,10,27,42.00
2016,01,30,10,28,42.00
2016,01,30,10,29,43.60
2016,01,30,10,30,44.00
2016,01,30,10,31,44.30
2016,01,30,10,32,46.00
2016,01,30,10,33,46.00
2016,01,30,10,34,46.00
2016,01,30,10,35,44.70
2016,01,30,10,36,44.00
2016,01,30,10,37,43.90
2016,01,30,10,38,42.00
2016,01,30,10,39,42.00
2016,01,30,10,40,42.00
2016,01,30,10,41,42.00
2016,01,30,10,42,43.30
2016,01,30,10,43,44.00
2016,01,30,10,44,44.00
2016,01,30,10,45,44.00
2016,01,30,10,46,44.00
2016,01,30,10,47,44.00
2016,01,30,10,48,44.00
2016,01,30,10,49,45.30
2016,01,30,10,50,46.00
2016,01,30,10,51,46.90
2016,01,30,10,52,47.00
2016,01,30,10,53,47.00
2016,01,30,10,54,47.80
2016,01,30,10,55,49.00
2016,01,30,10,56,49.00
2016,01,30,10,57,49.00
2016,01,30,10,58,49.00
2016,01,30,10,59,48.70
2016,01,30,11,00,47.00
2016,01,30,11,01,47.00
2016,01,30,11,02,47.00
2016,01,30,11,03,47.00
2016,01,30,11,04,47.00
2016,01,30,11,05,48.80
2016,01,30,11,06,49.30
2016,01,30,11,07,51.00
2016,01,30,11,08,51.80
2016,01,30,11,09,53.00
2016,01,30,11,10,53.00
2016,01,30,11,11,53.00
2016,01,30,11,12,53.00
2016,01,30,11,13,53.00
2016,01,30,11,14,53.00
2016,01,30,11,15,53.00
2016,01,30,11,16,53.60
2016,01,30,11,17,55.30
2016,01,30,11,18,57.60
2016,01,30,11,19,59.90
2016,01,30,11,20,62.20
2016,01,30,11,21,63.50
2016,01,30,11,22,65.80
2016,01,30,11,23,68.10
2016,01,30,11,24,69.00
2016,01,30,11,25,69.00
2016,01,30,11,26,69.00
2016,01,30,11,27,70.00
2016,01,30,11,28,70.00
2016,01,30,11,29,70.00
2016,01,30,11,30,70.00
2016,01,30,11,31,69.30
2016,01,30,11,32,69.00
2016,01,30,11,33,67.20
2016,01,30,11,34,67.00
2016,01,30,11,35,66.50
2016,01,30,11,36,65.00
2016,01,30,11,37,65.00
2016,01,30,11,38,65.00
2016,01,30,11,39,63.50
2016,01,30,11,40,63.00
2016,01,30,11,41,62.00
2016,01,30,11,42,62.00
2016,01,30,11,43,62.00
2016,01,30,11,44,62.00
2016,01,30,11,45,62.70
2016,01,30,11,46,63.00
2016,01,30,11,47,63.00
2016,01,30,11,48,63.00
2016,01,30,11,49,62.80
2016,01,30,11,50,62.00
2016,01,30,11,51,60.90
2016,01,30,11,52,60.00
2016,01,30,11,53,58.50
2016,01,30,11,54,57.90
2016,01,30,11,55,56.00
2016,01,30,11,56,56.00
2016,01,30,11,57,56.70
2016,01,30,11,58,60.00
2016,01,30,11,59,62.70
2016,01,30,12,00,63.00
2016,01,30,12,01,64.80
2016,01,30,12,02,65.00
2016,01,30,12,03,65.00
2016,01,30,12,04,65.00
2016,01,30,12,05,65.00
2016,01,30,12,06,65.00
2016,01,30,12,07,66.50
2016,01,30,12,08,67.00
2016,01,30,12,09,66.70
2016,01,30,12,10,65.00
2016,01,30,12,11,64.20
2016,01,30,12,12,62.50
2016,01,30,12,13,60.70
2016,01,30,12,14,60.00
2016,01,30,12,15,59.90
2016,01,30,12,16,58.00
2016,01,30,12,17,57.50
2016,01,30,12,18,56.00
2016,01,30,12,19,54.90
2016,01,30,12,20,54.00
2016,01,30,12,21,53.20
2016,01,30,12,22,53.80
2016,01,30,12,23,54.00
2016,01,30,12,24,54.60
2016,01,30,12,25,56.80
2016,01,30,12,26,59.10
2016,01,30,12,27,60.00
2016,01,30,12,28,61.50
2016,01,30,12,29,62.80
2016,01,30,12,30,65.30
2016,01,30,12,31,67.80
2016,01,30,12,32,70.70
2016,01,30,12,33,73.00
2016,01,30,12,34,75.90
2016,01,30,12,35,78.50
2016,01,30,12,36,80.90
2016,01,30,12,37,84.30
2016,01,30,12,38,86.50
2016,01,30,12,39,89.20
2016,01,30,12,40,92.00
2016,01,30,12,41,95.50
2016,01,30,12,42,99.20
2016,01,30,12,43,103.60
2016,01,30,12,44,105.70
2016,01,30,12,45,118.10
2016,01,30,12,46,125.80
2016,01,30,12,47,133.90
2016,01,30,12,48,141.30
2016,01,30,12,49,151.20
2016,01,30,12,50,159.60
2016,01,30,12,51,167.80
2016,01,30,12,52,173.70
2016,01,30,12,53,179.10
2016,01,30,12,54,183.00
2016,01,30,12,55,185.60
2016,01,30,12,56,192.80
2016,01,30,12,57,205.80
2016,01,30,12,58,200.30
2016,01,30,12,59,200.20
2016,01,30,13,00,193.00
2016,01,30,13,01,190.00
2016,01,30,13,02,186.80
2016,01,30,13,03,180.20
2016,01,30,13,04,172.60
2016,01,30,13,05,164.00
2016,01,30,13,06,155.60
2016,01,30,13,07,146.20
2016,01,30,13,08,138.50
2016,01,30,13,09,130.40
2016,01,30,13,10,124.10
2016,01,30,13,11,118.50
2016,01,30,13,12,113.90
2016,01,30,13,13,112.40
2016,01,30,13,14,105.80
2016,01,30,13,15,95.20
2016,01,30,13,16,91.00
2016,01,30,13,17,86.90
2016,01,30,13,18,84.10
2016,01,30,13,19,83.00
2016,01,30,13,20,83.00
2016,01,30,13,21,83.00
2016,01,30,13,22,83.50
2016,01,30,13,23,84.00
2016,01,30,13,24,84.00
2016,01,30,13,25,83.20
2016,01,30,13,26,83.00
2016,01,30,13,27,83.30
2016,01,30,13,28,84.00
2016,01,30,13,29,84.00
2016,01,30,13,30,84.00
2016,01,30,13,31,84.00
2016,01,30,13,32,83.10
2016,01,30,13,33,83.00
2016,01,30,13,34,83.00
2016,01,30,13,35,83.00
2016,01,30,13,36,83.50
2016,01,30,13,37,84.00
2016,01,30,13,38,84.00
2016,01,30,13,39,84.10
2016,01,30,13,40,86.00
2016,01,30,13,41,85.50
2016,01,30,13,42,84.00
2016,01,30,13,43,83.50
2016,01,30,13,44,81.70
2016,01,30,13,45,79.40
2016,01,30,13,46,77.10
2016,01,30,13,47,73.70
2016,01,30,13,48,70.70
2016,01,30,13,49,64.90
2016,01,30,13,50,58.80
2016,01,30,13,51,54.80
2016,01,30,13,52,53.20
2016,01,30,13,53,53.00
2016,01,30,13,54,52.70
2016,01,30,13,55,51.00
2016,01,30,13,56,51.00
2016,01,30,13,57,51.00
2016,01,30,13,58,51.00
2016,01,30,13,59,52.50
2016,01,30,14,00,54.00
2016,01,30,14,01,56.00
2016,01,30,14,02,56.00
2016,01,30,14,03,56.70
2016,01,30,14,04,58.00
2016,01,30,14,05,58.00
2016,01,30,14,06,56.40
2016,01,30,14,07,54.30
2016,01,30,14,08,52.70
2016,01,30,14,09,50.40
2016,01,30,14,10,49.00
2016,01,30,14,11,49.00
2016,01,30,14,12,50.30
2016,01,30,14,13,51.00
2016,01,30,14,14,51.00
2016,01,30,14,15,51.00
2016,01,30,14,16,51.00
2016,01,30,14,17,51.00
2016,01,30,14,18,52.00
2016,01,30,14,19,53.00
2016,01,30,14,20,53.80
2016,01,30,14,21,54.00
2016,01,30,14,22,56.00
2016,01,30,14,23,56.50
2016,01,30,14,24,58.80
2016,01,30,14,25,61.10
2016,01,30,14,26,64.00
2016,01,30,14,27,66.60
2016,01,30,14,28,69.90
2016,01,30,14,29,74.30
2016,01,30,14,30,76.30
2016,01,30,14,31,77.80
2016,01,30,14,32,80.10
2016,01,30,14,33,81.00
2016,01,30,14,34,81.00
2016,01,30,14,35,82.70
2016,01,30,14,36,83.20
2016,01,30,14,37,84.00
2016,01,30,14,38,84.80
2016,01,30,14,39,86.00
2016,01,30,14,40,87.30
2016,01,30,14,41,88.00
2016,01,30,14,42,89.80
2016,01,30,14,43,90.00
2016,01,30,14,44,89.40
2016,01,30,14,45,87.20
2016,01,30,14,46,84.90
2016,01,30,14,47,83.30
2016,01,30,14,48,83.00
2016,01,30,14,49,79.40
2016,01,30,14,50,76.80
2016,01,30,14,51,75.50
2016,01,30,14,52,72.50
2016,01,30,14,53,70.00
2016,01,30,14,54,69.40
2016,01,30,14,55,67.50
2016,01,30,14,56,65.20
2016,01,30,14,57,62.80
2016,01,30,14,58,61.40
2016,01,30,14,59,59.20
2016,01,30,15,00,58.00
2016,01,30,15,01,56.80
2016,01,30,15,02,56.00
2016,01,30,15,03,56.00
2016,01,30,15,04,56.00
2016,01,30,15,05,56.00
2016,01,30,15,06,56.00
2016,01,30,15,07,56.00
2016,01,30,15,08,54.80
2016,01,30,15,09,54.00
2016,01,30,15,10,54.00
2016,01,30,15,11,54.00
2016,01,30,15,12,53.70
2016,01,30,15,13,53.00
2016,01,30,15,14,53.00
2016,01,30,15,15,53.00
2016,01,30,15,16,53.00
2016,01,30,15,17,51.20
2016,01,30,15,18,51.00
2016,01,30,15,19,51.00
2016,01,30,15,20,51.00
2016,01,30,15,21,52.10
2016,01,30,15,22,53.70
2016,01,30,15,23,54.00
2016,01,30,15,24,57.60
2016,01,30,15,25,60.30
2016,01,30,15,26,62.30
2016,01,30,15,27,63.70
2016,01,30,15,28,66.00
2016,01,30,15,29,67.00
2016,01,30,15,30,68.50
2016,01,30,15,31,69.00
2016,01,30,15,32,69.00
2016,01,30,15,33,69.20
2016,01,30,15,34,70.00
2016,01,30,15,35,70.00
2016,01,30,15,36,69.40
2016,01,30,15,37,69.00
2016,01,30,15,38,69.90
2016,01,30,15,39,70.00
2016,01,30,15,40,70.00
2016,01,30,15,41,70.00
2016,01,30,15,42,70.00
2016,01,30,15,43,70.00
2016,01,30,15,44,70.00
2016,01,30,15,45,69.20
2016,01,30,15,46,68.70
2016,01,30,15,47,67.00
2016,01,30,15,48,66.20
2016,01,30,15,49,63.90
2016,01,30,15,50,62.30
2016,01,30,15,51,60.40
2016,01,30,15,52,58.10
2016,01,30,15,53,56.00
2016,01,30,15,54,55.40
2016,01,30,15,55,53.60
2016,01,30,15,56,51.90
2016,01,30,15,57,49.70
2016,01,30,15,58,49.00
2016,01,30,15,59,47.30
2016,01,30,16,00,45.70
2016,01,30,16,01,44.00
2016,01,30,16,02,43.20
2016,01,30,16,03,41.00
2016,01,30,16,04,40.00
2016,01,30,16,05,39.20
2016,01,30,16,06,37.30
2016,01,30,16,07,36.80
2016,01,30,16,08,34.50
2016,01,30,16,09,33.00
2016,01,30,16,10,32.50
2016,01,30,16,11,32.00
2016,01,30,16,12,30.50
2016,01,30,16,13,30.00
2016,01,30,16,14,29.70
2016,01,30,16,15,28.00
2016,01,30,16,16,28.00
2016,01,30,16,17,26.90
2016,01,30,16,18,26.00
2016,01,30,16,19,26.00
2016,01,30,16,20,25.10
2016,01,30,16,21,25.00
2016,01,30,16,22,25.00
2016,01,30,16,23,24.20
2016,01,30,16,24,23.00
2016,01,30,16,25,23.00
2016,01,30,16,26,23.00
2016,01,30,16,27,23.00
2016,01,30,16,28,21.00
2016,01,30,16,29,21.00
2016,01,30,16,30,20.20
2016,01,30,16,31,19.00
2016,01,30,16,32,19.00
2016,01,30,16,33,18.20
2016,01,30,16,34,18.00
2016,01,30,16,35,16.00
2016,01,30,16,36,15.50
2016,01,30,16,37,14.00
2016,01,30,16,38,13.00
2016,01,30,16,39,12.00
2016,01,30,16,40,12.00
2016,01,30,16,41,11.10
2016,01,30,16,42,10.80
2016,01,30,16,43,9.00
2016,01,30,16,44,9.00
2016,01,30,16,45,8.00
2016,01,30,16,46,7.00
2016,01,30,16,47,7.00
2016,01,30,16,48,5.20
2016,01,30,16,49,5.00
2016,01,30,16,50,5.00
2016,01,30,16,51,5.00
2016,01,30,16,52,5.00
2016,01,30,16,53,1.80
2016,01,30,16,54,0.00
2016,01,30,16,55,0.00
2016,01,30,16,56,0.00
2016,01,30,16,57,0.00
2016,01,30,16,58,0.00
2016,01,30,16,59,0.00
2016,01,30,17,00,0.00
2016,01,30,17,01,0.00
2016,01,30,17,02,0.00
2016,01,30,17,03,0.00
2016,01,30,17,04,0.00
2016,01,30,17,05,0.00
2016,01,30,17,06,0.00
2016,01,30,17,07,0.00
2016,01,30,17,08,0.00
2016,01,30,17,09,0.00
2016,01,30,17,10,0.00
2016,01,30,17,11,0.00
2016,01,30,17,12,0.00
2016,01,30,17,13,0.00
2016,01,30,17,14,0.00
2016,01,30,17,15,0.00
2016,01,30,17,16,0.00
2016,01,30,17,17,0.00
2016,01,30,17,18,0.00
2016,01,30,17,19,0.00
2016,01,30,17,20,0.00
2016,01,30,17,21,0.00
2016,01,30,17,22,0.00
2016,01,30,17,23,0.00
2016,01,30,17,24,0.00
2016,01,30,17,25,0.00
2016,01,30,17,26,0.00
2016,01,30,17,27,0.00
2016,01,30,17,28,0.00
2016,01,30,17,29,0.00
2016,01,30,17,30,0.00
2016,01,30,17,31,0.00
2016,01,30,17,32,0.00
2016,01,30,17,33,0.00
2016,01,30,17,34,0.00
2016,01,30,17,35,0.00
2016,01,30,17,36,0.00
2016,01,30,17,37,0.00
2016,01,30,17,38,0.00
2016,01,30,17,39,0.00
2016,01,30,17,40,0.00
2016,01,30,17,41,0.00
2016,01,30,17,42,0.00